User: anonymous   Login
Location: Unspecified
(0.0000°N, 0.0000°E)
Time: 00:25:15
(UTC+00:00)
Language:

CBERS 2B - Orbit

View from above orbital plane
View from above orbital plane
View from above satellite
View from above satellite

Ground track
Ground track

The orbit data is extracted from the following two-line orbital elements,

1 32062U 07042A   21023.87966531  .00000016  00000-0  17781-4 0  9994
2 32062  98.1316   9.6086 0032250 155.7900 204.4814 14.39769242701100
Epoch (UTC): 23 January 2021 21:06:43
Eccentricity: 0.0032250
inclination: 98.1316°
perigee height: 736 km
apogee height: 782 km
right ascension of ascending node: 9.6086°
argument of perigee: 155.7900°
revolutions per day: 14.39769242
mean anomaly at epoch: 204.4814°
orbit number at epoch: 70110

The dashed part of the orbit path shows where the satellite is in the earth's shadow,  

DLR